Weather History for Linden, NJ

Change the Weather History Date:

Wednesday, October 9, 2013

  Actual Average (KEWR) Record (KEWR)
Temperature  
Mean Temperature 59 °F 59 °F  
Max Temperature 64 °F 68 °F 88 °F (2011)
Min Temperature 54 °F 50 °F 35 °F (1988)
Degree Days  
Heating Degree Days 6 7  
Month to date heating degree days 51  
Since 1 July heating degree days 96  
Cooling Degree Days 0 1  
Month to date cooling degree days 10  
Year to date cooling degree days 1184  
Growing Degree Days 9 (Base 50)    
Moisture  
Dew Point 45 °F    
Average Humidity 58    
Maximum Humidity 65    
Minimum Humidity 52    
Precipitation  
Precipitation 0.00 in 0.12 in 1.10 in (1977)
Month to date precipitation 1.07  
Year to date precipitation 36.26  
Snow  
Snow 0.00 in 0.00 in 0.00 in (2002)
Month to date snowfall 0.0  
Since 1 July snowfall 0.0  
Snow Depth -    
Sea Level Pressure  
Sea Level Pressure 30.36 in    
Wind  
Wind Speed 8 mph (ENE)    
Max Wind Speed 16 mph    
Max Gust Speed 20 mph    
Visibility 10 miles    
Events      
T = Trace of Precipitation, MM = Missing Value Source: NWS Daily Summary

Daily Weather History Graph

Daily Weather History Graph

Search for Another Location

Airport:

Trip Planner

Search our weather history database for the weather conditions in past years. The results will help you decide how hot, cold, wet, or windy it might be!

Date:

Astronomy

Oct. 09, 2013 Rise Set
Actual Time 7:01 AM EDT 6:25 PM EDT
Civil Twilight 6:34 AM EDT 6:53 PM EDT
Nautical Twilight 6:02 AM EDT 7:24 PM EDT
Astronomical Twilight 5:31 AM EDT 7:56 PM EDT
Moon 11:55 AM EDT (10/9) 9:56 PM EDT (10/9)
Length of Visible Light 12h 18m
Length of Day
11h 23m
Waxing Crescent, 25% of the Moon is Illuminated
Oct 9
Waxing Crescent
Oct 11
First Quarter
Oct 18
Full
Oct 26
Last Quarter
Nov 3
New

Hourly Weather History & Observations

Time (EDT) Temp. Dew Point Humidity Pressure Visibility Wind Dir Wind Speed Gust Speed Precip Events Conditions
12:15 AM 59.2 °F 44.1 °F 57% 30.34 in 10.0 mi NE 8.1 mph - N/A   Clear
12:35 AM 59.0 °F 43.9 °F 57% 30.34 in 10.0 mi NE 5.8 mph - N/A   Clear
12:55 AM 59.0 °F 43.7 °F 57% 30.34 in 10.0 mi NNE 5.8 mph - N/A   Clear
1:15 AM 58.5 °F 43.3 °F 57% 30.34 in 10.0 mi NE 6.9 mph - N/A   Clear
1:35 AM 58.5 °F 43.2 °F 57% 30.34 in 10.0 mi NE 6.9 mph - N/A   Clear
1:55 AM 58.3 °F 43.2 °F 57% 30.36 in 10.0 mi NE 6.9 mph - N/A   Clear
2:15 AM 58.1 °F 43.0 °F 57% 30.36 in 10.0 mi NE 5.8 mph - N/A   Clear
2:35 AM 58.1 °F 42.8 °F 57% 30.35 in 10.0 mi NE 5.8 mph - N/A   Clear
2:55 AM 58.1 °F 42.4 °F 56% 30.35 in 10.0 mi NE 5.8 mph - N/A   Clear
3:15 AM 57.9 °F 42.8 °F 57% 30.35 in 10.0 mi NE 5.8 mph - N/A   Clear
3:35 AM 57.7 °F 43.7 °F 60% 30.35 in 10.0 mi ENE 3.5 mph - N/A   Clear
3:55 AM 57.6 °F 43.7 °F 60% 30.35 in 10.0 mi NE 5.8 mph - N/A   Clear
4:15 AM 56.7 °F 43.0 °F 60% 30.34 in 10.0 mi NNE 5.8 mph - N/A   Clear
4:35 AM 56.3 °F 42.8 °F 61% 30.35 in 10.0 mi NNE 4.6 mph - N/A   Clear
4:55 AM 56.7 °F 41.5 °F 57% 30.35 in 10.0 mi NE 8.1 mph - N/A   Clear
5:15 AM 56.5 °F 41.2 °F 57% 30.36 in 10.0 mi NE 8.1 mph - N/A   Clear
5:35 AM 56.1 °F 39.7 °F 54% 30.36 in 10.0 mi NE 8.1 mph - N/A   Clear
5:55 AM 55.8 °F 38.5 °F 52% 30.36 in 10.0 mi NE 6.9 mph - N/A   Clear
6:15 AM 55.4 °F 39.2 °F 54% 30.36 in 10.0 mi NE 8.1 mph - N/A   Clear
6:35 AM 54.9 °F 39.6 °F 56% 30.36 in 10.0 mi NE 8.1 mph - N/A   Clear
6:55 AM 54.5 °F 39.7 °F 57% 30.37 in 10.0 mi NE 8.1 mph - N/A   Clear
7:15 AM 54.5 °F 40.1 °F 58% 30.37 in 10.0 mi NE 9.2 mph - N/A   Clear
7:35 AM 54.9 °F 40.3 °F 58% 30.38 in 10.0 mi NE 9.2 mph - N/A   Clear
7:55 AM 54.9 °F 41.2 °F 60% 30.39 in 10.0 mi NE 8.1 mph - N/A   Clear
8:15 AM 55.4 °F 42.4 °F 62% 30.40 in 10.0 mi NNE 8.1 mph - N/A   Clear
8:35 AM 55.4 °F 43.2 °F 63% 30.41 in 10.0 mi NE 8.1 mph - N/A   Clear
8:55 AM 55.8 °F 44.1 °F 65% 30.41 in 10.0 mi NE 10.4 mph 17.3 mph N/A   Clear
9:15 AM 56.1 °F 44.6 °F 65% 30.41 in 10.0 mi NE 8.1 mph - N/A   Clear
9:35 AM 56.7 °F 45.1 °F 65% 30.41 in 10.0 mi NE 12.7 mph - N/A   Clear
9:55 AM 57.2 °F 45.7 °F 65% 30.41 in 10.0 mi NE 9.2 mph - N/A   Clear
10:15 AM 58.1 °F 45.7 °F 63% 30.40 in 10.0 mi NE 8.1 mph - N/A   Clear
10:35 AM 59.0 °F 45.7 °F 61% 30.40 in 10.0 mi NE 10.4 mph 17.3 mph N/A   Clear
10:55 AM 59.9 °F 45.1 °F 58% 30.40 in 10.0 mi ENE 10.4 mph - N/A   Clear
11:15 AM 60.8 °F 45.5 °F 57% 30.41 in 10.0 mi East 16.1 mph - N/A   Scattered Clouds
11:35 AM 60.8 °F 45.5 °F 57% 30.40 in 10.0 mi East 13.8 mph 19.6 mph N/A   Scattered Clouds
11:55 AM 61.2 °F 45.7 °F 57% 30.41 in 10.0 mi East 15.0 mph 18.4 mph N/A   Clear
12:15 PM 61.7 °F 45.5 °F 55% 30.41 in 10.0 mi East 10.4 mph 19.6 mph N/A   Scattered Clouds
12:35 PM 62.2 °F 46.4 °F 56% 30.40 in 10.0 mi East 12.7 mph - N/A   Scattered Clouds
12:55 PM 62.2 °F 47.1 °F 58% 30.39 in 10.0 mi ENE 13.8 mph 18.4 mph N/A   Mostly Cloudy
1:15 PM 63.1 °F 47.1 °F 56% 30.39 in 10.0 mi East 13.8 mph 17.3 mph N/A   Mostly Cloudy
1:35 PM 63.1 °F 47.3 °F 56% 30.38 in 10.0 mi East 10.4 mph - N/A   Mostly Cloudy
1:55 PM 63.1 °F 47.3 °F 56% 30.38 in 10.0 mi East 9.2 mph - N/A   Mostly Cloudy
2:15 PM 63.0 °F 47.8 °F 58% 30.38 in 10.0 mi East 11.5 mph - N/A   Overcast
2:35 PM 63.5 °F 47.7 °F 56% 30.37 in 10.0 mi East 11.5 mph - N/A   Overcast
2:55 PM 63.7 °F 47.7 °F 56% 30.36 in 10.0 mi ENE 11.5 mph - N/A   Overcast
3:15 PM 64.4 °F 47.3 °F 54% 30.36 in 10.0 mi East 9.2 mph - N/A   Overcast
3:35 PM 64.4 °F 47.5 °F 54% 30.36 in 10.0 mi East 10.4 mph - N/A   Overcast
3:55 PM 64.4 °F 47.8 °F 55% 30.36 in 10.0 mi East 12.7 mph 17.3 mph N/A   Overcast
4:15 PM 63.9 °F 48.0 °F 56% 30.36 in 10.0 mi ENE 11.5 mph - N/A   Overcast
4:55 PM 63.7 °F 47.5 °F 56% 30.34 in 10.0 mi East 10.4 mph 16.1 mph N/A   Scattered Clouds
5:15 PM 63.5 °F 47.3 °F 56% 30.34 in 10.0 mi East 12.7 mph - N/A   Clear
5:35 PM 63.3 °F 47.1 °F 56% 30.34 in 10.0 mi East 9.2 mph - N/A   Scattered Clouds
5:55 PM 63.0 °F 46.4 °F 55% 30.34 in 10.0 mi East 12.7 mph - N/A   Clear
6:15 PM 63.0 °F 45.5 °F 53% 30.35 in 10.0 mi East 10.4 mph 19.6 mph N/A   Clear
6:35 PM 62.8 °F 45.1 °F 53% 30.35 in 10.0 mi East 11.5 mph - N/A   Clear
6:55 PM 62.2 °F 46.4 °F 56% 30.34 in 10.0 mi East 9.2 mph - N/A   Clear
7:15 PM 62.2 °F 46.6 °F 57% 30.34 in 10.0 mi East 10.4 mph - N/A   Clear
7:55 PM 61.2 °F 47.3 °F 60% 30.33 in 10.0 mi ENE 3.5 mph - N/A   Clear
8:15 PM 61.5 °F 47.8 °F 61% 30.33 in 10.0 mi East 5.8 mph - N/A   Clear
8:35 PM 61.9 °F 48.7 °F 62% 30.32 in 10.0 mi East 9.2 mph - N/A   Clear
8:55 PM 62.1 °F 48.4 °F 61% 30.32 in 10.0 mi East 9.2 mph - N/A   Clear
9:15 PM 61.9 °F 48.0 °F 60% 30.32 in 10.0 mi East 9.2 mph - N/A   Clear
9:35 PM 61.7 °F 47.8 °F 60% 30.32 in 10.0 mi East 10.4 mph - N/A   Clear
9:55 PM 61.3 °F 48.2 °F 62% 30.32 in 10.0 mi East 8.1 mph - N/A   Clear
10:15 PM 61.3 °F 47.3 °F 60% 30.32 in 10.0 mi East 13.8 mph - N/A   Clear
10:35 PM 61.0 °F 47.7 °F 62% 30.32 in 10.0 mi East 8.1 mph - N/A   Clear
10:55 PM 60.8 °F 47.8 °F 62% 30.32 in 10.0 mi ESE 5.8 mph - N/A   Clear
11:15 PM 60.4 °F 48.2 °F 64% 30.32 in 10.0 mi East 10.4 mph - N/A   Clear
11:35 PM 60.8 °F 48.7 °F 64% 30.32 in 10.0 mi East 12.7 mph 16.1 mph N/A   Clear
11:55 PM 60.4 °F 48.6 °F 65% 30.31 in 10.0 mi East 10.4 mph - N/A   Clear